LIBFLIBD

Guest
Details From LIBF - Foggia Gino Lisa
To LIBD - Bari Palese Macchie
Flight Number -
Tags decoded
Created
Modified
Stats Distance 58 nm / 107 km
Max Altitude 0 ft / 0 m
Waypoints 2
Social Downloads 0
Likes 0
Share VATSIM

Download

Looking for another format? Having issues loading an existing format? Contact us
Advertisement - Login to hide

Notes

Requested: LIBF LIBD

Route

LIBF LIBD

ID Type Via Altitude Latitude Longitude Leg Dist Tot Dist Heading (true) Name
O LIBF APT - 0 ft / 0 m 41.43362˚ 15.53462˚ - 0 nm - Foggia Gino Lisa
O LIBD APT - 0 ft / 0 m 41.13787˚ 16.75832˚ 58 nm 58 nm 107° / 108° Bari Palese Macchie

Altitude Profile

Advertisement - Login to hide

LIBF

Details ICAO LIBF (FOG)
Name Foggia Gino Lisa
Region Italy
Timezone Europe/Rome (UTC+2.0)
Stats Elevation 265 ft / 81 m (AMSL)
Location 41.433617° 15.534615°
Runways 1
Magnetic Variation 3.600° E

METAR

LIBF 240950Z 31010KT 270V350 9999 SCT030 24/16 Q1017

Decode

TAF

Not found

Departure Runways

ID Width Length Bearing (true) Bearing (mag) Surface Threshold Offset Overrun Length
15 148 ft / 45 m 4,540 ft / 1,384 m 156.64° 153.04° Concrete 0 ft / 0 m 0 ft / 0 m
33 148 ft / 45 m 4,540 ft / 1,384 m 336.64° 333.04° Concrete 0 ft / 0 m 0 ft / 0 m

LIBD

Details ICAO LIBD (BRI)
Name Bari Palese Macchie
Region Italy
Timezone Europe/Rome (UTC+2.0)
Stats Elevation 177 ft / 54 m (AMSL)
Location 41.137865° 16.758318°
Runways 1
Magnetic Variation 3.782° E

METAR

LIBD 241020Z 36011KT 9999 FEW015 22/16 Q1016

Decode

TAF

TAF LIBD 240500Z 2406/2506 28008KT 9999 FEW030 BECMG 2408/2410 02012KT BECMG 2416/2419 28008KT

Decode

Destination Runways

ID Width Length Bearing (true) Bearing (mag) Surface Threshold Offset Overrun Length
07 148 ft / 45 m 9,262 ft / 2,823 m 69.39° 65.61° Asphalt 1,257 ft / 383 m 0 ft / 0 m
25 148 ft / 45 m 9,262 ft / 2,823 m 249.42° 245.64° Asphalt 0 ft / 0 m 194 ft / 59 m

Approach Navaids

Runway Type Ident Frequency Range Bearing (true) Bearing (mag) Slope Elevation
07 Localiser BAP 111.35 MHz 18 nm / 33 km 69.25° 65.47° - 177 ft / 54 m (AMSL)
07 Glidescope BAP 111.35 MHz 10 nm / 19 km 69.25° 65.47° 3.32° 177 ft / 54 m (AMSL)
07 DME BAP 111.35 MHz 18 nm / 33 km - - - 183 ft / 56 m (AMSL)

Popular Alternatives